EHI
0 0 0 0 0 0 0 0 0 0 0 0 0 0 0 0 0 0 0 0 0 0 0 0 0 0 0 0 0 0 0 0 0 0 0 1 2 3 3 3 3 3 1 0
0 0 0 0 0 0 0 0 0 0 0 0 0 0 0 0 0 0 0 0 0 0 0 0 0 0 0 0 0 0 0 0 0 0 0 0 1 2 3 3 3 3 2 1
0 0 0 0 0 0 0 0 0 0 0 0 0 0 0 0 0 0 0 0 0 0 0 0 0 0 0 0 0 0 0 0 0 0 0 0 0 1 2 2 2 2 2 1
0 0 0 0 0 0 0 0 0 0 0 0 0 0 0 0 0 0 0 0 0 0 0 0 0 0 0 0 0 0 0 0 0 0 0 0 0 0 1 1 1 1 1 0
0 0 0 0 0 0 0 0 0 0 0 0 0 0 0 0 0 0 0 0 0 0 0 0 0 0 0 0 0 0 0 0 0 0 0 0 0 0 0 0 0 0 0 0
0 0 0 0 0 0 0 0 0 0 0 0 0 0 0 0 0 0 0 0 0 0 0 0 0 0 0 0 0 0 0 0 0 0 0 0 0 0 0 0 0 0 0 0
0 0 0 0 0 0 0 0 0 0 0 0 0 0 0 0 0 0 0 0 0 0 0 0 0 0 0 0 0 0 0 0 0 0 0 0 0 0 0 0 0 0 0 0
0 0 0 0 0 0 0 0 0 0 0 0 0 0 0 0 0 0 0 0 0 0 0 0 0 0 0 0 0 0 0 0 0 0 0 0 0 0 0 0 0 0 0 0
0 0 0 0 0 0 0 0 0 0 0 0 0 0 0 0 0 0 0 0 0 0 0 0 0 0 0 0 0 0 0 0 0 0 0 0 0 0 0 0 0 0 0 0
0 0 0 0 0 0 0 0 0 0 0 0 0 0 0 0 0 0 0 0 0 0 0 0 0 0 0 0 0 0 0 0 0 0 0 0 0 0 0 0 0 0 0 0
0 0 0 0 0 0 0 0 0 0 0 0 0 0 0 0 0 0 0 0 0 0 0 0 0 0 0 0 0 0 0 0 0 0 0 0 0 0 0 0 0 0 0 0
0 0 0 0 0 0 0 0 0 0 0 0 0 0 0 0 0 0 0 0 0 0 0 0 0 0 0 0 0 0 0 0 0 0 0 0 0 0 0 0 0 0 0 0
0 0 0 0 0 0 0 0 0 0 0 0 0 0 0 0 0 0 0 0 0 0 0 0 0 0 0 0 0 0 0 0 0 0 0 0 0 0 0 0 0 0 0 0
0 0 0 0 0 0 0 0 0 0 0 0 0 0 0 0 0 0 0 0 0 0 0 0 0 0 0 0 0 0 0 0 0 0 0 0 0 0 0 0 0 0 0 0
0 0 0 0 0 0 0 0 0 0 0 0 0 0 0 0 0 0 0 0 0 0 0 0 0 0 0 0 0 0 0 0 0 0 0 0 0 0 0 0 0 0 0 0
0 0 0 0 0 0 0 0 0 0 0 0 0 0 0 0 0 0 0 0 0 0 0 0 0 0 0 0 0 0 0 0 0 0 0 0 0 0 0 0 0 0 0 0
0 0 0 0 0 0 0 0 0 0 0 0 0 0 0 0 0 0 0 0 0 0 0 0 0 0 0 0 0 0 0 0 0 0 0 0 0 0 0 0 0 0 0 0
0 0 0 0 0 0 0 0 0 0 0 0 0 0 0 0 0 0 0 0 0 0 0 0 0 0 0 0 0 0 0 0 0 0 0 0 0 0 0 0 0 0 0 0
0 0 0 0 0 0 0 0 0 0 0 0 0 0 0 0 0 0 0 0 0 0 0 0 0 0 0 0 0 0 0 0 0 0 0 0 0 0 0 0 0 0 0 0
0 0 0 0 0 0 0 0 0 0 0 0 0 0 0 0 0 0 0 0 0 0 0 0 0 0 0 0 0 0 0 0 0 0 0 0 0 0 0 0 0 0 0 0
0 0 0 0 0 0 0 0 0 0 0 0 0 0 0 0 0 0 0 0 0 0 0 0 0 0 0 0 0 0 0 0 0 0 0 0 0 0 0 0 0 0 0 0
0 0 0 0 0 0 0 0 0 0 0 0 0 0 0 0 0 0 0 0 0 0 0 0 0 0 0 0 0 0 0 0 0 0 0 0 0 0 0 0 0 0 0 0
0 0 0 0 0 0 0 0 0 0 0 0 0 0 0 0 0 0 0 0 0 0 0 0 0 0 0 0 0 0 0 0 0 0 0 0 0 0 0 0 0 0 0 0
0 0 0 0 0 0 0 0 0 0 0 0 0 0 0 0 0 0 0 0 0 0 0 0 0 0 0 0 0 0 0 0 0 0 0 0 0 0 0 0 0 0 0 0
0 0 0 0 0 0 0 0 0 0 0 0 0 0 0 0 0 0 0 0 0 0 0 0 0 0 0 0 0 0 0 0 0 0 0 0 0 0 0 0 0 0 0 0
0 0 0 0 0 0 0 0 0 0 0 0 0 0 0 0 0 0 0 0 0 0 0 0 0 0 0 0 0 0 0 0 0 0 0 0 0 0 0 0 0 0 0 0
0 0 0 0 0 0 0 0 0 0 0 0 0 0 0 0 0 0 0 0 0 0 0 0 0 0 0 0 0 0 0 0 0 0 0 0 0 0 0 0 0 0 0 0
Wind_Speed
5 4 3 6 7 9 11 10 10 10 11 11 8 8 8 7 5 4 4 4 4 4 3 2 2 2 2 2 2 2 2 3 3 3 3 4 4 4 4 4 4 4 4 4
4 3 4 6 8 10 11 11 13 13 14 9 8 7 7 6 5 5 5 5 4 4 3 3 3 2 2 2 2 2 2 3 3 3 3 4 4 4 4 4 4 4 4 4
4 2 3 8 8 10 8 8 8 11 10 7 8 8 8 7 6 6 6 5 5 4 4 3 3 3 3 2 2 2 2 3 3 3 3 4 4 4 4 4 4 4 4 4
1 1 8 2 1 5 6 7 8 8 8 8 9 8 7 6 6 7 6 5 5 4 3 2 2 2 2 2 2 2 3 3 3 3 4 4 4 4 4 4 4 4 4 5
2 4 8 4 2 2 4 7 5 8 10 9 7 6 5 3 5 6 6 5 4 3 3 2 2 1 2 2 2 2 3 3 4 4 4 4 4 5 4 4 4 4 4 5
3 5 7 1 2 0 2 5 1 4 7 6 5 5 3 5 6 5 4 2 2 2 1 1 1 1 2 2 2 3 3 4 4 4 4 4 4 5 4 4 4 4 4 4
5 6 7 1 1 2 4 3 3 3 4 3 4 4 6 6 5 4 3 2 2 1 1 1 1 1 2 2 3 3 4 4 4 4 4 4 4 4 4 4 4 4 4 4
5 6 6 3 4 5 3 3 3 3 3 3 5 5 5 5 4 4 3 2 2 1 1 2 1 1 2 3 3 3 4 4 4 4 4 3 4 4 4 4 4 4 4 4
7 5 2 3 4 3 2 3 3 3 3 3 4 4 4 4 4 3 3 2 2 2 2 2 2 2 2 3 3 3 3 4 4 4 4 4 4 4 3 3 3 3 3 3
5 7 5 5 5 4 4 4 4 4 4 3 4 4 4 3 3 3 2 2 2 1 2 3 3 2 3 3 3 3 4 4 4 3 3 3 3 3 3 3 3 3 3 4
6 6 5 5 5 5 4 5 5 4 4 4 4 4 3 3 3 2 2 2 1 1 2 3 3 3 3 3 3 3 4 4 3 3 3 3 3 3 3 3 4 4 4 4
6 4 4 4 3 4 4 5 4 4 4 3 4 4 3 3 2 2 2 2 2 2 2 3 3 3 3 3 3 3 3 3 3 3 3 3 3 3 4 5 6 6 6 6
5 2 4 5 5 3 4 5 4 4 4 4 3 3 3 3 2 2 2 2 2 2 2 3 3 3 3 3 3 3 3 3 3 3 3 3 3 3 3 4 4 5 6 7
5 3 4 4 4 3 4 4 3 3 3 3 3 2 2 2 2 2 2 2 2 2 2 2 3 3 3 3 3 3 3 3 3 3 3 3 3 3 3 3 4 3 4 5
5 5 5 4 4 3 2 2 2 3 2 2 2 2 2 2 2 2 2 1 1 2 2 2 3 3 3 3 3 3 3 2 2 3 3 3 3 3 3 3 3 3 3 4
4 4 4 5 5 4 3 3 4 4 3 3 2 3 2 2 2 2 1 1 2 2 2 3 3 3 3 3 3 3 3 4 4 3 3 3 3 3 3 3 3 3 3 3
3 3 4 5 5 5 5 5 5 4 4 3 3 2 2 1 1 1 1 1 2 3 3 3 3 3 3 3 3 3 3 3 4 3 2 3 2 3 3 3 3 3 3 3
6 6 6 6 6 6 5 5 4 4 4 3 2 2 2 2 2 2 2 2 2 3 3 3 3 3 3 3 3 2 2 2 2 3 2 2 3 3 3 3 3 4 3 3
4 5 5 5 5 4 5 5 4 4 3 3 3 3 3 3 2 2 2 2 2 3 2 3 4 3 3 3 3 2 2 2 2 3 2 3 3 3 3 3 3 3 3 3
4 4 4 4 3 3 4 3 3 3 3 3 3 2 2 2 2 2 2 3 3 2 3 3 3 3 3 3 3 2 2 2 3 2 2 3 2 2 2 3 3 3 3 3
3 3 3 3 3 3 3 3 3 3 3 3 3 3 3 2 2 2 2 2 2 2 3 3 2 2 3 2 3 2 2 2 2 2 3 3 3 3 3 3 3 3 3 3
3 3 3 3 2 2 2 2 3 3 2 2 3 2 2 2 2 2 3 3 2 3 2 2 2 3 3 2 2 2 2 2 2 2 2 3 3 3 3 3 3 3 3 3
3 3 3 3 3 2 2 1 2 2 3 3 3 3 3 3 2 2 2 1 2 3 2 2 4 5 4 2 1 2 2 2 2 2 3 3 3 3 3 3 3 3 3 3
2 2 2 2 1 1 1 1 1 1 2 2 2 3 3 2 2 2 2 3 3 3 2 3 5 4 2 1 1 2 2 2 2 2 3 3 3 3 3 3 3 3 3 3
2 2 1 1 2 1 1 1 0 0 1 1 1 2 2 2 2 2 2 2 3 3 2 3 3 3 2 1 1 2 2 2 2 2 2 3 3 3 3 3 3 3 2 2
2 1 2 2 2 1 1 1 1 1 1 1 1 1 1 1 1 1 1 2 2 2 2 2 2 2 1 2 2 2 2 2 3 2 3 3 3 3 3 3 3 3 3 2
1 1 1 1 1 1 1 1 2 2 1 1 1 1 1 1 1 1 1 1 1 1 1 1 1 1 2 2 2 2 2 2 2 2 2 2 2 2 2 3 3 3 2 2
Wind_Direction
270 285 259 246 234 215 221 235 248 265 269 282 293 298 302 302 295 287 276 264 257 257 254 244 254 269 276 286 287 278 279 286 293 299 300 301 297 299 302 300 300 298 292 289
254 256 260 260 248 232 235 243 254 271 278 288 298 298 296 293 284 275 270 267 265 263 258 248 250 262 274 279 288 282 278 288 300 300 298 299 302 298 297 298 300 298 292 292
241 286 274 253 231 216 225 233 244 254 271 303 301 302 301 298 286 280 278 270 261 258 257 252 253 258 262 272 279 279 281 287 292 295 300 302 302 297 297 295 296 293 290 289
238 240 243 244 123 217 232 249 242 260 284 301 303 307 302 296 292 288 287 278 267 264 265 260 259 263 271 274 266 267 274 280 284 288 292 300 300 293 291 291 289 289 289 288
207 247 270 272 196 185 230 267 238 257 282 301 318 298 278 304 302 294 291 281 273 271 262 254 253 257 265 265 266 272 277 281 285 284 285 289 292 293 294 290 289 290 288 287
202 236 252 255 106 24 244 263 225 267 289 310 321 292 322 352 326 318 316 304 297 291 273 250 269 253 244 256 264 275 284 286 287 284 283 281 284 290 295 294 293 297 294 290
217 243 266 294 137 190 232 298 340 288 290 286 271 291 322 326 326 328 331 337 343 327 290 296 302 266 258 267 278 290 293 290 288 284 281 281 285 289 291 292 297 298 297 297
201 225 249 135 159 211 276 335 304 297 288 269 279 301 313 319 326 336 342 352 357 348 337 338 319 284 280 286 297 299 294 290 290 289 287 284 283 286 288 289 291 295 297 300
210 234 331 184 224 258 298 285 293 295 288 275 277 289 306 315 320 326 330 340 348 347 342 341 329 301 289 301 307 301 295 291 293 297 292 285 280 281 284 285 283 288 290 296
250 263 266 246 251 260 264 272 286 288 280 266 271 282 297 304 307 312 317 326 333 335 330 327 326 315 300 304 303 298 295 296 296 295 294 292 285 279 279 277 279 285 288 292
250 270 282 253 238 260 276 279 283 285 270 266 268 275 280 286 289 294 304 310 308 306 306 315 324 322 320 314 306 300 297 296 299 294 292 296 294 291 285 280 282 283 282 285
236 231 236 264 265 265 261 270 275 279 280 276 260 264 271 274 278 281 288 296 300 304 307 312 316 319 324 318 308 299 294 295 297 298 300 298 299 300 291 281 290 287 289 292
255 263 261 275 285 268 261 273 276 266 265 274 269 258 260 268 271 272 274 281 286 294 299 306 311 314 319 317 307 295 292 296 299 299 299 300 299 300 307 306 291 284 289 293
246 252 263 256 270 283 277 278 276 270 270 269 271 265 260 265 265 259 266 279 286 290 293 299 302 306 313 312 306 299 293 292 292 293 295 295 292 292 295 302 308 312 307 304
243 240 248 275 285 286 284 276 271 272 277 282 268 254 247 248 254 267 279 285 276 275 283 292 297 303 312 307 301 295 291 292 294 293 291 291 292 292 293 295 299 306 313 320
263 254 247 254 266 273 271 262 258 263 267 269 265 258 252 253 259 265 261 239 244 266 280 286 290 300 304 301 297 288 285 294 299 294 291 292 292 292 294 296 299 302 306 314
223 250 251 264 268 269 261 254 252 254 256 255 257 255 241 234 240 251 266 263 265 270 274 275 286 298 298 296 290 286 290 294 298 295 293 294 292 289 289 290 293 296 300 308
232 244 244 254 256 258 261 259 252 248 247 251 248 228 218 218 236 256 271 279 281 283 282 285 292 296 294 294 287 282 284 289 293 293 291 286 286 283 284 286 289 291 298 303
245 251 254 256 254 247 247 249 249 247 244 227 220 226 233 237 241 253 258 256 261 276 291 295 299 299 291 289 293 273 274 281 288 290 288 288 287 286 284 286 289 292 296 297
258 259 260 263 256 236 239 245 243 242 232 213 213 221 233 240 236 240 246 249 254 274 287 290 293 287 287 285 289 274 271 275 281 284 286 288 292 294 293 291 291 291 292 293
266 268 264 260 263 253 235 228 224 231 231 213 211 220 232 243 233 230 237 257 271 278 278 284 289 285 286 284 278 277 279 279 281 283 284 287 291 294 295 293 291 289 289 289
261 259 261 257 253 263 256 232 220 218 219 220 219 215 220 234 237 244 245 249 267 284 294 281 281 282 288 279 271 273 276 281 283 284 283 283 284 288 291 293 292 291 288 286
262 255 254 249 245 260 271 242 215 208 213 221 219 218 224 237 236 237 258 251 264 281 294 279 288 294 295 270 267 268 273 278 282 285 286 286 282 282 283 285 284 285 286 287
269 264 261 255 224 224 254 271 249 233 230 240 233 225 223 234 249 242 253 261 277 290 288 288 299 316 333 302 270 271 273 276 279 280 283 287 288 287 285 283 283 284 284 287
263 251 235 216 219 237 252 264 273 234 229 251 255 246 236 235 238 255 263 257 269 289 293 291 307 324 327 298 284 279 278 278 283 286 282 285 288 290 293 294 293 294 294 292
254 248 247 245 241 240 234 222 230 237 239 259 280 274 269 259 240 247 252 257 265 280 287 284 287 297 297 295 292 288 284 287 290 288 285 285 286 290 293 298 303 303 304 304
263 253 251 262 248 228 228 225 229 238 236 238 267 273 278 276 257 249 250 255 266 271 275 279 281 284 292 296 298 297 293 290 288 286 286 287 289 292 296 298 299 302 305 308